COSMOS 1275 DEB, 17618

Orbit data source: Space-Track

COSMOS 1275 DEB, 17618 is space debris in LEO originally from a launch on Thu, 04 Jun 1981 UTC launched from the Plesetsk Missile And Space Complex (PKMTR). Debris objects in space refer to the collection of defunct objects orbiting the Earth. Examples of debris include non-operational satellites, rocket bodies, and fragments generated from explosions, collisions, or faulty payload assembly.

Loading next visibility...
Identifier
17618, 1981-053KM
Orbit
LEO
Country
Flag of CISCIS
Related business
Manufacturer
Unknown
Mission
Spacecraft
Bus & Motor
Unknown
Mass
Unknown
Launch date (UTC)
1981-06-04 (45 years ago)
Launch vehicle
Unknown
Launch site
Plesetsk Missile And Space Complex (PKMTR)
Object type
Payload
Rocket body
Debris
Shape & HBR
Unknown shape, 0.1 m
Radar Cross Section
Small (<0.1 m²)

Expand to show TLE details & history
Last TLE update: 17 hours ago

TLE from 17 hours ago
0 COSMOS 1275 DEB
1 17618U 81053KM  25354.85852734  .00002590  00000-0  13827-2 0  9990
2 17618  82.8471 282.2914 0052072 358.3010  65.1529 14.12253360 68828
Epoch: 2025-12-20T20:36Z
TLE epoch observation values (Epoch: 2025-12-20T20:36:16.762Z)
Latitude
63.18788°
Longitude
-102.15802°
Altitude
846.882 km
Speed
7.443 km/s
True Right ascension
19h 46m 21s
True Declination
63° 03' 03"
Sunlit
Object was in daylight at epoch
Visualization orbit readout
Latitude
Unknown
Longitude
Unknown
Altitude
Unknown
Speed
Unknown
Apparent Right ascension
Unknown
Apparent Declination
Unknown
Sunlit
N/A
Visualization observer readout
Local Sidereal Time
12:54:40
Azimuth
Unknown
Elevation
Unknown
Doppler factor
Unknown
Orbital elements
Apogee altitude
886.404 km
Perigee altitude
811.14 km
Semi-major axis
7,226.909 km
Eccentricity
0.00521
Inclination
82.8471°
RAAN
282.2914°
Arg. of periapsis
358.301°
True anomaly
65.69584°
Mean anomaly
65.1529°
Eccentric anomaly
65.42422°
Mean motion
3.53276 °/min
Orbital period
101.9 mins
BSTAR
0.0013827
Loading maneuver chart data...
Computing Atmospheric mass density...
Loading historical data...
Loading historical data...
Loading historical data...
Loading historical data...
Loading historical data...
Loading historical data...
Loading historical data...

Documentation

Showing up to 5 results
|